When you browse on this site, cookies collect data to enhance your experience and personalize the content and advertising you see.
Visit our Privacy Policy to learn more. By continuing to use the site, you agree to this use of cookies and data.
  • In Lithuania
  • List of Countries
  • For 7 days
  • Water Temperature
  • Satellite Maps
  • Weather Map
  • Weather Widgets
  • user-avatar
    Login

    Hourly Weather Nha Trang

    Today, 17 November, Saturday

    Time Temperature Precipitation Wind Pressure Humidity
    00:00 +26°C° 0 mm 2 mps 748 mmHg 94%
    01:00 +26°C° 0 mm 2 mps 748 mmHg 94%
    02:00 +26°C° 0 mm 2 mps 748 mmHg 94%
    03:00 +26°C° 0 mm 2 mps 748 mmHg 93%
    04:00 +26°C° 0 mm 3 mps 748 mmHg 92%
    05:00 +26°C° 0 mm 3 mps 748 mmHg 90%
    06:00 +27°C° 0 mm 3 mps 748 mmHg 87%
    07:00 +27°C° 0 mm 3 mps 748 mmHg 81%
    08:00 +28°C° 0.4 mm 3 mps 749 mmHg 76%
    09:00 +29°C° 0.4 mm 3 mps 749 mmHg 71%
    10:00 +30°C° 0.4 mm 3 mps 749 mmHg 66%
    11:00 +29°C° 1.8 mm 3 mps 748 mmHg 74%
    12:00 +28°C° 1.8 mm 3 mps 748 mmHg 83%
    13:00 +27°C° 1.8 mm 3 mps 748 mmHg 91%
    14:00 +27°C° 3.2 mm 4 mps 747 mmHg 92%
    15:00 +26°C° 3.2 mm 4 mps 747 mmHg 94%
    16:00 +26°C° 3.2 mm 4 mps 747 mmHg 95%
    17:00 +26°C° 5.1 mm 4 mps 747 mmHg 95%
    18:00 +26°C° 5.1 mm 4 mps 748 mmHg 96%
    19:00 +26°C° 5.1 mm 5 mps 748 mmHg 96%
    20:00 +26°C° 4.8 mm 5 mps 748 mmHg 96%
    21:00 +26°C° 4.8 mm 5 mps 748 mmHg 97%
    22:00 +26°C° 4.8 mm 5 mps 748 mmHg 97%
    23:00 +25°C° 11 mm 5 mps 748 mmHg 97%

    Tomorrow, 18 November, Sunday

    Time Temperature Precipitation Wind Pressure Humidity
    00:00 +25°C° 11 mm 5 mps 747 mmHg 97%
    01:00 +25°C° 11 mm 5 mps 747 mmHg 97%
    02:00 +25°C° 23.4 mm 5 mps 747 mmHg 97%
    03:00 +25°C° 23.4 mm 5 mps 747 mmHg 97%
    04:00 +25°C° 23.4 mm 5 mps 746 mmHg 97%
    05:00 +25°C° 27.8 mm 5 mps 747 mmHg 97%
    06:00 +25°C° 27.8 mm 5 mps 747 mmHg 97%
    07:00 +25°C° 27.8 mm 4 mps 747 mmHg 98%
    08:00 +25°C° 28.2 mm 4 mps 748 mmHg 98%
    09:00 +25°C° 28.2 mm 4 mps 748 mmHg 98%
    10:00 +25°C° 28.2 mm 4 mps 748 mmHg 98%
    11:00 +26°C° 18.7 mm 4 mps 748 mmHg 98%
    12:00 +26°C° 18.7 mm 4 mps 748 mmHg 98%
    13:00 +26°C° 18.7 mm 4 mps 748 mmHg 97%
    14:00 +26°C° 4.1 mm 4 mps 747 mmHg 97%
    15:00 +26°C° 4.1 mm 4 mps 747 mmHg 97%
    16:00 +26°C° 4.1 mm 4 mps 746 mmHg 97%
    17:00 +26°C° 1.2 mm 4 mps 747 mmHg 97%
    18:00 +26°C° 1.2 mm 4 mps 747 mmHg 97%
    19:00 +26°C° 1.2 mm 4 mps 747 mmHg 97%
    20:00 +26°C° 0.5 mm 4 mps 748 mmHg 97%
    21:00 +26°C° 0.5 mm 4 mps 748 mmHg 97%
    22:00 +26°C° 0.5 mm 4 mps 748 mmHg 97%
    23:00 +26°C° 0.5 mm 3 mps 748 mmHg 97%

    Day after tomorrow, 19 November, Monday

    Time Temperature Precipitation Wind Pressure Humidity
    00:00 +26°C° 0.5 mm 3 mps 748 mmHg 97%
    01:00 +26°C° 0.5 mm 3 mps 748 mmHg 97%
    02:00 +26°C° 0.8 mm 3 mps 748 mmHg 97%
    03:00 +26°C° 0.8 mm 3 mps 747 mmHg 97%
    04:00 +26°C° 0.8 mm 3 mps 747 mmHg 98%
    05:00 +26°C° 0.8 mm 2 mps 748 mmHg 97%
    06:00 +26°C° 0.8 mm 2 mps 748 mmHg 97%
    07:00 +26°C° 0.8 mm 2 mps 749 mmHg 97%
    08:00 +27°C° 0.3 mm 2 mps 749 mmHg 93%
    09:00 +28°C° 0.3 mm 2 mps 749 mmHg 89%
    10:00 +29°C° 0.3 mm 1 mps 750 mmHg 85%
    11:00 +30°C° 0.2 mm 2 mps 749 mmHg 80%
    12:00 +31°C° 0.2 mm 2 mps 748 mmHg 74%
    13:00 +32°C° 0.2 mm 2 mps 748 mmHg 69%
    14:00 +31°C° 0.1 mm 2 mps 748 mmHg 73%
    15:00 +30°C° 0.1 mm 2 mps 747 mmHg 76%
    16:00 +30°C° 0.1 mm 2 mps 747 mmHg 79%
    17:00 +28°C° 0.2 mm 2 mps 748 mmHg 84%
    18:00 +27°C° 0.2 mm 2 mps 748 mmHg 89%
    19:00 +26°C° 0.2 mm 2 mps 749 mmHg 95%
    20:00 +25°C° 0.1 mm 2 mps 749 mmHg 94%
    21:00 +25°C° 0.1 mm 2 mps 750 mmHg 94%
    22:00 +25°C° 0.1 mm 2 mps 750 mmHg 94%
    23:00 +25°C° 0.1 mm 2 mps 750 mmHg 93%

    20 November, Tuesday

    Time Temperature Precipitation Wind Pressure Humidity
    00:00 +24°C° 0.1 mm 2 mps 749 mmHg 93%
    01:00 +24°C° 0.1 mm 2 mps 749 mmHg 93%
    02:00 +24°C° 0.1 mm 2 mps 749 mmHg 92%
    03:00 +24°C° 0.1 mm 2 mps 748 mmHg 92%
    04:00 +24°C° 0.1 mm 2 mps 748 mmHg 91%
    05:00 +24°C° 0 mm 2 mps 749 mmHg 89%
    06:00 +25°C° 0 mm 2 mps 749 mmHg 87%
    07:00 +26°C° 0 mm 2 mps 750 mmHg 84%
    08:00 +28°C° 0 mm 2 mps 750 mmHg 77%
    09:00 +30°C° 0 mm 2 mps 750 mmHg 70%
    10:00 +32°C° 0 mm 2 mps 750 mmHg 63%
    11:00 +33°C° 0 mm 3 mps 749 mmHg 62%
    12:00 +33°C° 0 mm 3 mps 748 mmHg 61%
    13:00 +34°C° 0 mm 3 mps 747 mmHg 61%
    14:00 +33°C° 0.1 mm 3 mps 747 mmHg 66%
    15:00 +31°C° 0.1 mm 3 mps 747 mmHg 71%
    16:00 +30°C° 0.1 mm 3 mps 746 mmHg 76%
    17:00 +29°C° 0.1 mm 3 mps 747 mmHg 82%
    18:00 +28°C° 0.1 mm 3 mps 748 mmHg 89%
    19:00 +26°C° 0.1 mm 3 mps 748 mmHg 95%
    20:00 +26°C° 0 mm 3 mps 749 mmHg 95%
    21:00 +26°C° 0 mm 3 mps 749 mmHg 96%
    22:00 +25°C° 0 mm 3 mps 749 mmHg 96%
    23:00 +25°C° 0 mm 3 mps 749 mmHg 95%

    21 November, Wednesday

    Time Temperature Precipitation Wind Pressure Humidity
    00:00 +25°C° 0 mm 3 mps 748 mmHg 94%
    01:00 +24°C° 0 mm 3 mps 748 mmHg 92%
    02:00 +24°C° 0 mm 3 mps 748 mmHg 90%
    03:00 +24°C° 0 mm 3 mps 748 mmHg 88%
    04:00 +24°C° 0 mm 3 mps 747 mmHg 86%
    05:00 +24°C° 0 mm 3 mps 748 mmHg 85%
    06:00 +25°C° 0 mm 3 mps 748 mmHg 85%
    07:00 +25°C° 0 mm 3 mps 749 mmHg 84%
    08:00 +27°C° 0 mm 3 mps 749 mmHg 76%
    09:00 +29°C° 0 mm 3 mps 749 mmHg 67%
    10:00 +31°C° 0 mm 3 mps 749 mmHg 59%
    11:00 +33°C° 0 mm 4 mps 748 mmHg 57%
    12:00 +34°C° 0 mm 4 mps 747 mmHg 54%
    13:00 +35°C° 0 mm 4 mps 746 mmHg 52%
    14:00 +34°C° 0 mm 4 mps 746 mmHg 57%
    15:00 +33°C° 0 mm 5 mps 746 mmHg 63%
    16:00 +32°C° 0 mm 5 mps 745 mmHg 69%
    17:00 +30°C° 0 mm 5 mps 746 mmHg 76%
    18:00 +28°C° 0 mm 4 mps 747 mmHg 84%
    19:00 +26°C° 0 mm 4 mps 747 mmHg 91%
    20:00 +26°C° 0 mm 4 mps 748 mmHg 91%
    21:00 +26°C° 0 mm 4 mps 748 mmHg 91%
    22:00 +26°C° 0 mm 4 mps 748 mmHg 91%
    23:00 +26°C° 0.1 mm 4 mps 748 mmHg 90%

    22 November, Thursday

    Time Temperature Precipitation Wind Pressure Humidity
    00:00 +26°C° 0.1 mm 4 mps 747 mmHg 89%
    01:00 +26°C° 0.1 mm 4 mps 747 mmHg 88%
    02:00 +25°C° 0 mm 4 mps 747 mmHg 88%
    03:00 +25°C° 0 mm 4 mps 746 mmHg 88%
    04:00 +25°C° 0 mm 4 mps 746 mmHg 88%
    05:00 +25°C° 0 mm 4 mps 747 mmHg 86%
    06:00 +26°C° 0 mm 4 mps 747 mmHg 85%
    07:00 +26°C° 0 mm 4 mps 748 mmHg 84%
    08:00 +28°C° 0 mm 4 mps 748 mmHg 77%
    09:00 +29°C° 0 mm 4 mps 747 mmHg 70%
    10:00 +32°C° 0 mm 4 mps 747 mmHg 63%
    11:00 +32°C° 0 mm 4 mps 747 mmHg 62%
    12:00 +33°C° 0 mm 4 mps 746 mmHg 61%
    13:00 +33°C° 0 mm 5 mps 745 mmHg 60%
    14:00 +32°C° 0.4 mm 5 mps 745 mmHg 68%
    15:00 +30°C° 0.4 mm 4 mps 745 mmHg 77%
    16:00 +29°C° 0.4 mm 4 mps 745 mmHg 85%
    17:00 +28°C° 0.1 mm 4 mps 746 mmHg 87%
    18:00 +27°C° 0.1 mm 4 mps 746 mmHg 88%
    19:00 +26°C° 0.1 mm 4 mps 747 mmHg 90%
    20:00 +26°C° 0 mm 4 mps 747 mmHg 89%
    21:00 +26°C° 0 mm 4 mps 747 mmHg 89%
    22:00 +26°C° 0 mm 4 mps 747 mmHg 89%
    23:00 +26°C° 0 mm 4 mps 747 mmHg 88%
    Show more